Flag for Norway Weather past 2 weeks in Stavanger, Norway

45 °F

Partly cloudy.

Feels Like: 36 °F
Forecast: 42 / 46 °F
Wind: 24 mph from West

Location: Stavanger / Sola

Current Time: Nov 30, 2015 at 10:32:18 PM

Latest Report: Nov 30, 2015 at 9:50 PM

Visibility: N/A

Pressure: 29.47 "Hg

Humidity: 66%

Dew point: 34 °F

Location of StavangerLocation

Historic Weather in Stavanger — Graph


Stavanger temperature yesterday

Maximum temperature yesterday: 45 °F (at 1:50 AM)
Minimum temperature yesterday: 39 °F (at 8:50 PM)
Average temperature yesterday: 43 °F

Past Weeks' High & Low Weather Summary

High52 °F (Nov 16, 10:50 AM)100% (Nov 19, 10:50 PM)30.04 "Hg (Nov 19, 10:50 PM)
Low23 °F (Nov 22, 6:50 AM)52% (Nov 22, 2:20 PM)28.91 "Hg (Nov 29, 4:50 PM)
Average42 °F82%29.46 "Hg
* Reported Nov 15 8:20 PM — Nov 30 8:50 PM, Stavanger, Weather by CustomWeather, © 2015

Note: Actual official high and low records may vary slightly from our data, if they occured in-between our weather recording intervals... More about our weather records


Stavanger weather history for previous 24 hours

Time TempWeatherWind HumidityBarometerVisibility
8:50 PM
Mon, Nov 30
43 °FPassing clouds.23 mph71%29.47 "HgN/A
8:20 PM41 °FPartly cloudy.12 mph76%29.45 "HgN/A
7:50 PM41 °FSprinkles. Partly cloudy.25 mph70%29.45 "HgN/A
7:20 PM43 °FPartly cloudy.17 mph66%29.45 "HgN/A
6:50 PM43 °FPartly cloudy.22 mph66%29.45 "HgN/A
6:20 PM43 °FPartly cloudy.20 mph66%29.42 "HgN/A
5:50 PM43 °FPassing clouds.20 mph71%29.42 "HgN/A
5:20 PM43 °FSprinkles. Partly cloudy.20 mph71%29.42 "HgN/A
4:50 PM43 °FSprinkles. Partly cloudy.14 mph76%29.42 "HgN/A
4:20 PM43 °FScattered showers. Partly cloudy.13 mph66%29.42 "HgN/A
3:50 PM43 °FScattered showers. Partly cloudy.14 mph71%29.42 "HgN/A
3:20 PM43 °FScattered showers. Broken clouds.24 mph71%29.42 "HgN/A
2:50 PM43 °FScattered showers. Broken clouds.20 mph71%29.42 "HgN/A
2:20 PM45 °FScattered showers. Broken clouds.18 mph71%29.42 "HgN/A
1:50 PM45 °FScattered showers. Partly sunny.22 mph66%29.42 "HgN/A
1:20 PM45 °FScattered showers. Broken clouds.23 mph66%29.42 "HgN/A
12:50 PM43 °FScattered showers. Broken clouds.13 mph81%29.42 "HgN/A
12:20 PM41 °FScattered showers. Broken clouds.6 mph81%29.42 "HgN/A
11:50 AM41 °FRain. Broken clouds.22 mph76%29.42 "HgN/A
11:20 AM43 °FScattered showers. Scattered clouds.17 mph71%29.42 "HgN/A
10:50 AM43 °FScattered showers. Partly sunny.20 mph71%29.39 "HgN/A
10:20 AM41 °FScattered showers. Cloudy.13 mph76%29.39 "HgN/A
9:50 AM41 °FScattered showers. Partly sunny.25 mph76%29.39 "HgN/A
9:20 AM45 °FRain. Partly sunny.31 mph66%29.36 "HgN/A
8:50 AM45 °FScattered showers. Partly cloudy.32 mph61%29.33 "HgN/A
8:20 AM45 °FScattered showers. Partly cloudy.31 mph66%29.30 "HgN/A
7:50 AM45 °FPassing clouds.32 mph66%29.30 "HgN/A
7:20 AM45 °FRain showers. Passing clouds.35 mph71%29.27 "HgN/A
6:50 AM45 °FScattered showers. Partly cloudy.32 mph66%29.27 "HgN/A
6:20 AM45 °FScattered showers. Passing clouds.31 mph66%29.24 "HgN/A
5:50 AM43 °FScattered showers. Passing clouds.32 mph71%29.24 "HgN/A
5:20 AM45 °FRain showers. Partly cloudy.32 mph61%29.21 "Hg6 mi
3:50 AM45 °FRain showers. Partly cloudy.37 mph66%29.15 "Hg6 mi
2:50 AM43 °FRain showers. Partly cloudy.39 mph76%29.09 "Hg6 mi
1:50 AM45 °FRain showers. Partly cloudy.30 mph76%29.03 "Hg6 mi
12:50 AM43 °FScattered showers. Passing clouds.23 mph81%29.00 "HgN/A
12:20 AM43 °FScattered showers. Passing clouds.23 mph71%28.97 "HgN/A
11:50 PM
Sun, Nov 29
41 °FRain showers. Partly cloudy.28 mph81%28.97 "Hg6 mi
11:20 PM39 °FRain showers. Partly cloudy.28 mph87%28.97 "Hg6 mi
10:50 PM45 °FRain showers. Partly cloudy.26 mph71%28.97 "HgN/A
10:20 PM43 °FPassing clouds.22 mph76%28.97 "HgN/A
Weather by CustomWeather, © 2015

See weather overviewHow to use our weather pages